[[{"header":{"parameterUnit":"m.s-1","parameterCategory":1,"la1":30.2992,"la2":30.254,"lo1":-89.0895,"lo2":-89.0443,"dy":0.0025,"dx":0.0025,"nx":19,"ny":19,"refTime":"2026-04-08T09:00:00:Z","depth":0,"parameterNumber":2,"parameterNumberName":"U-component_of_WINDS"},"data":[0,0,0,-6.1446,-6.1451,-6.1609,-6.1609,-6.1873,-6.1875,0,0,0,0,0,0,0,0,0,0,0,-6.1434,-6.1437,-6.1446,-6.1451,-6.1609,-6.1609,-6.1872,-6.1875,0,0,0,0,0,0,0,0,0,0,0,-6.1433,-6.1436,-6.144,-6.1452,-6.1609,-6.1609,-6.1871,-6.1731,0,0,0,0,0,0,0,0,0,0,-6.1567,-6.1589,-6.1436,-6.144,-6.1453,-6.1608,-6.1609,-6.1723,-6.174,-6.1827,0,-6.191,0,-6.1897,-6.1897,-6.1898,0,0,0,-6.1426,-6.1576,-6.1587,-6.1441,-6.1455,-6.1608,-6.153,-6.1732,-6.1751,-6.1849,-6.1913,-6.1922,-6.1902,-6.1899,-6.19,-6.2478,-6.2482,0,0,-6.1417,-6.1482,-6.1574,-6.16,-6.1577,-6.1526,-6.1536,-6.1742,-6.1818,-6.1914,-6.1927,-6.1906,-6.1901,-6.1903,-6.2474,-6.2479,0,0,0,-6.1409,-6.1477,-6.1481,-6.1591,-6.1615,-6.1531,-6.1542,-6.1809,-6.1805,-6.1929,-6.1909,-6.1903,-6.1907,-6.247,-6.2476,-6.273,0,0,0,-6.1403,-6.1472,-6.1479,-6.1521,-6.1612,-6.1713,-6.1606,-6.179,-6.1812,-6.1908,-6.1903,-6.191,-6.2465,-6.2473,-6.2714,-6.2842,0,0,0,-6.1412,-6.1473,-6.1507,-6.1524,-6.1593,-6.1708,-6.1715,-6.1793,-6.1801,-6.1898,-6.1911,-6.2462,-6.2472,-6.2699,-6.2817,-6.3014,0,0,0,-6.1442,-6.1732,-6.1512,-6.1828,-6.1593,-6.1863,-6.1713,-6.1912,-6.2025,-6.1904,-6.2466,-6.2475,-6.2695,-6.2802,-6.2999,-6.3193,-6.3279,0,0,-6.1844,-6.1783,-6.1963,-6.1771,-6.2097,-6.1834,-6.2198,-6.2242,-6.2193,-6.2387,-6.24,-6.2719,-6.2816,-6.3011,-6.3734,-6.3803,0,0,0,-6.2113,-6.2244,-6.2316,-6.2426,-6.2464,-6.2509,-6.2489,-6.2506,-6.2666,-6.2304,-6.284,-6.2895,-6.3007,-6.3097,-6.3156,-6.325,-6.2519,-6.2518,-6.2517,-6.2778,-6.2697,-6.2991,-6.2931,-6.304,-6.3015,-6.3097,-6.3115,-6.3004,-6.3132,-6.319,-6.3638,-6.3746,-6.379,-6.3888,-6.3283,-6.3284,-6.3285,-6.3286,-6.3362,-6.3536,-6.3379,-6.3608,-6.3523,-6.3715,-6.3704,-6.3619,-6.3788,-6.3587,-6.3682,-6.3474,-6.3868,-6.395,-6.3304,-6.3301,-6.3299,-6.3297,-6.3296,-6.3792,-6.3861,-6.3873,-6.4024,-6.4149,-6.4077,-6.4247,-6.4162,-6.4084,-6.4177,-6.4231,-6.4227,-6.4215,-6.4208,-6.421,-6.4211,-6.4213,-6.4214,-6.4215,-6.4234,-6.4239,-6.4391,-6.4455,-6.4515,-6.4583,-6.4561,-6.4619,-6.4661,-6.4587,-6.4587,-6.4466,-6.3919,-6.3786,-6.4239,-6.4234,-6.4231,-6.4229,-6.4227,-6.4862,-6.4706,-6.4941,-6.5001,-6.507,-6.5202,-6.5089,-6.5214,-6.5249,-6.5336,-6.5193,-6.4802,-6.4734,-6.4687,-6.4577,-6.5207,-6.5207,-6.5207,-6.5207,-6.5227,-6.5183,-6.5404,-6.5505,-6.5594,-6.5517,-6.5789,-6.5776,-6.5738,-6.5756,-6.5651,-6.5496,-6.5451,-6.541,-6.5347,-6.5243,-6.6029,-6.603,-6.603,-6.5611,-6.5571,-6.5818,-6.5775,-6.5823,-6.5867,-6.612,-6.6246,-6.6171,-6.6062,-6.5768,-6.5734,-6.5482,-6.5403,-6.5292,-6.5197,-6.5003,0,0]},{"header":{"parameterUnit":"m.s-1","parameterCategory":1,"la1":30.2992,"la2":30.254,"lo1":-89.0895,"lo2":-89.0443,"dy":0.0025,"dx":0.0025,"nx":19,"ny":19,"refTime":"2026-04-08T09:00:00:Z","depth":0,"parameterNumber":3,"parameterNumberName":"V-component_of_WINDS"},"data":[0,0,0,-0.9626,-0.9625,-0.958,-0.958,-0.9523,-0.9522,0,0,0,0,0,0,0,0,0,0,0,-0.9643,-0.9642,-0.9626,-0.9625,-0.958,-0.958,-0.9523,-0.9522,0,0,0,0,0,0,0,0,0,0,0,-0.9643,-0.9643,-0.9642,-0.9625,-0.958,-0.958,-0.9523,-0.9556,0,0,0,0,0,0,0,0,0,0,-0.96,-0.9619,-0.9643,-0.9642,-0.9625,-0.958,-0.958,-0.9558,-0.9554,-0.9545,0,-0.9539,0,-0.953,-0.9519,-0.9519,0,0,0,-0.9623,-0.9622,-0.9607,-0.9642,-0.9625,-0.958,-0.96,-0.9556,-0.9552,-0.954,-0.9538,-0.9536,-0.9529,-0.9519,-0.9518,-0.9475,-0.9475,0,0,-0.9625,-0.9636,-0.961,-0.9605,-0.9614,-0.9601,-0.9598,-0.9553,-0.9551,-0.9538,-0.9534,-0.9528,-0.9518,-0.9518,-0.9475,-0.9475,0,0,0,-0.9634,-0.9638,-0.9624,-0.9607,-0.9599,-0.96,-0.9597,-0.9553,-0.9548,-0.9534,-0.9527,-0.9518,-0.9517,-0.9475,-0.9475,-0.9482,0,0,0,-0.9636,-0.9643,-0.9625,-0.9631,-0.96,-0.9576,-0.9598,-0.9551,-0.9546,-0.9528,-0.9518,-0.9517,-0.9475,-0.9475,-0.9482,-0.9483,0,0,0,-0.9645,-0.9644,-0.9639,-0.9632,-0.9613,-0.9576,-0.9568,-0.955,-0.9542,-0.9519,-0.9517,-0.9475,-0.9475,-0.9482,-0.9483,-0.9474,0,0,0,-0.9657,-0.9645,-0.9639,-0.9623,-0.9613,-0.9582,-0.9569,-0.9544,-0.9525,-0.9518,-0.9475,-0.9475,-0.9482,-0.9483,-0.9474,-0.9469,-0.9468,0,0,-0.9648,-0.9645,-0.9634,-0.9627,-0.96,-0.9588,-0.956,-0.9532,-0.9519,-0.949,-0.9489,-0.9482,-0.9483,-0.9474,-0.9458,-0.9457,0,0,0,-0.9635,-0.9628,-0.9618,-0.9601,-0.958,-0.9561,-0.9536,-0.9525,-0.95,-0.9507,-0.9476,-0.9476,-0.9471,-0.9467,-0.9467,-0.9461,-0.9474,-0.9474,-0.9474,-0.9638,-0.9622,-0.9604,-0.9583,-0.9566,-0.954,-0.9524,-0.9504,-0.9494,-0.9487,-0.9478,-0.947,-0.9467,-0.9466,-0.946,-0.9474,-0.9474,-0.9474,-0.9474,-0.9623,-0.9609,-0.9595,-0.9572,-0.9555,-0.9534,-0.9507,-0.95,-0.9477,-0.9476,-0.947,-0.947,-0.9466,-0.9459,-0.9474,-0.9474,-0.9474,-0.9474,-0.9474,-0.9623,-0.9614,-0.9601,-0.9573,-0.9553,-0.9531,-0.951,-0.9495,-0.948,-0.9475,-0.9463,-0.9463,-0.946,-0.947,-0.947,-0.947,-0.947,-0.947,-0.947,-0.9628,-0.9613,-0.9598,-0.9573,-0.9559,-0.9539,-0.9511,-0.9496,-0.9475,-0.9466,-0.9465,-0.9454,-0.9469,-0.9472,-0.947,-0.947,-0.947,-0.947,-0.947,-0.9618,-0.9617,-0.9594,-0.958,-0.9548,-0.9528,-0.9509,-0.9479,-0.9465,-0.9454,-0.9444,-0.9457,-0.9452,-0.9452,-0.9455,-0.9448,-0.9448,-0.9448,-0.9448,-0.9618,-0.9614,-0.9585,-0.9563,-0.954,-0.952,-0.9491,-0.9468,-0.9443,-0.9433,-0.9431,-0.9434,-0.9435,-0.9429,-0.943,-0.9432,-0.942,-0.942,-0.942,-0.961,-0.9603,-0.9583,-0.956,-0.9534,-0.951,-0.9482,-0.9456,-0.9428,-0.9418,-0.9424,-0.9425,-0.9429,-0.9431,-0.9422,-0.9424,-0.9428,0,0]}]]